Weather History for Denton, TX

Change the Weather History Date:

Tuesday, February 21, 2012

  Actual Average Record
Temperature  
Mean Temperature 48 °F -  
Max Temperature 66 °F 57 °F 79 °F (2005)
Min Temperature 30 °F 37 °F 28 °F (2014)
Degree Days  
Heating Degree Days 17    
Moisture  
Dew Point 36 °F    
Average Humidity 60    
Maximum Humidity 92    
Minimum Humidity 26    
Precipitation  
Precipitation 0.00 in - - ()
Sea Level Pressure  
Sea Level Pressure 30.03 in    
Wind  
Wind Speed 7 mph (SSW)    
Max Wind Speed 22 mph    
Max Gust Speed 22 mph    
Visibility 10 miles    
Events      
Averages and records for this station are not official NWS values.
T = Trace of Precipitation, MM = Missing Value Source: NWS Daily Summary

Daily Weather History Graph

Daily Weather History Graph

Search for Another Location

Airport:

Trip Planner

Search our weather history database for the weather conditions in past years. The results will help you decide how hot, cold, wet, or windy it might be!

Date:

Astronomy

Feb. 21, 2012 Rise Set
Actual Time 7:06 AM CST 6:18 PM CST
Civil Twilight 6:41 AM CST 6:43 PM CST
Nautical Twilight 6:12 AM CST 7:12 PM CST
Astronomical Twilight 5:43 AM CST 7:41 PM CST
Moon 6:37 AM CST (2/21) 6:23 PM CST (2/21)
Length of Visible Light 12h 02m
Length of Day
11h 12m
Waning Crescent, 0% of the Moon is Illuminated
Feb 21
Waning Crescent
Feb 21
New
Feb 29
First Quarter
Mar 8
Full
Mar 14
Last Quarter

Hourly Weather History & Observations

Time (CST) Temp. Windchill Dew Point Humidity Pressure Visibility Wind Dir Wind Speed Gust Speed Precip Events Conditions
12:53 AM 45.0 °F 43.5 °F 27.0 °F 49% 30.10 in 10.0 mi West 3.5 mph - N/A   Clear
1:53 AM 37.0 °F 32.4 °F 30.0 °F 76% 30.12 in 10.0 mi SSW 5.8 mph - N/A   Clear
2:53 AM 37.0 °F 32.4 °F 28.9 °F 73% 30.12 in 10.0 mi WSW 5.8 mph - N/A   Clear
3:53 AM 37.0 °F - 28.9 °F 73% 30.12 in 10.0 mi Calm Calm - N/A   Clear
5:53 AM 33.1 °F - 28.9 °F 85% 30.13 in 10.0 mi Calm Calm - N/A   Clear
6:53 AM 30.9 °F - 28.0 °F 89% 30.13 in 10.0 mi Calm Calm - N/A   Clear
7:53 AM 32.0 °F 28.7 °F 30.0 °F 92% 30.15 in 10.0 mi NNW 3.5 mph - N/A   Unknown
8:53 AM 43.0 °F - 35.1 °F 74% 30.16 in 10.0 mi Calm Calm - N/A   Clear
9:53 AM 52.0 °F - 32.0 °F 47% 30.16 in 10.0 mi South 6.9 mph - N/A   Clear
10:53 AM 55.9 °F - 25.0 °F 30% 30.14 in 10.0 mi South 10.4 mph - N/A   Clear
11:53 AM 61.0 °F - 28.0 °F 29% 30.12 in 10.0 mi South 15.0 mph - N/A   Clear
12:53 PM 63.0 °F - 28.9 °F 28% 30.08 in 10.0 mi SSW 17.3 mph 21.9 mph N/A   Clear
1:53 PM 66.0 °F - 30.0 °F 26% 30.03 in 10.0 mi South 17.3 mph - N/A   Clear
2:53 PM 66.9 °F - 32.0 °F 27% 29.99 in 10.0 mi SSW 19.6 mph - N/A   Clear
4:53 PM 66.9 °F - 39.0 °F 36% 29.92 in 10.0 mi South 17.3 mph - N/A   Clear
5:53 PM 63.0 °F - 41.0 °F 45% 29.89 in 10.0 mi South 12.7 mph - N/A   Clear
6:53 PM 59.0 °F - 44.1 °F 58% 29.88 in 10.0 mi South 8.1 mph - N/A   Clear
7:53 PM 60.1 °F - 46.9 °F 62% 29.88 in 10.0 mi South 8.1 mph - N/A   Clear
8:53 PM 59.0 °F - 52.0 °F 78% 29.88 in 10.0 mi South 10.4 mph - N/A   Clear
9:53 PM 60.1 °F - 54.0 °F 80% 29.86 in 10.0 mi South 13.8 mph - N/A   Clear
10:53 PM 59.0 °F - 54.0 °F 83% 29.86 in 10.0 mi SSW 19.6 mph - N/A   Clear
11:53 PM 60.1 °F - 53.1 °F 78% 29.84 in 10.0 mi SSW 21.9 mph - N/A   Clear